TimeCST,TemperatureF,Dew PointF,Humidity,Sea Level PressureIn,VisibilityMPH,Wind Direction,Wind SpeedMPH,Gust SpeedMPH,PrecipitationIn,Events,Conditions,WindDirDegrees,DateUTC
12:15 AM,42.8,35.6,76,29.80,10.0,NNE,4.6,-,N/A,,Clear,30,2013-02-25 06:15:00
12:35 AM,44.6,35.6,71,29.78,10.0,NE,4.6,-,N/A,,Clear,50,2013-02-25 06:35:00
12:55 AM,44.6,35.6,71,29.79,10.0,NE,4.6,-,N/A,,Scattered Clouds,40,2013-02-25 06:55:00
1:15 AM,46.4,35.6,66,29.78,10.0,NE,4.6,-,N/A,,Overcast,50,2013-02-25 07:15:00
1:35 AM,48.2,35.6,62,29.77,10.0,NE,4.6,-,N/A,,Overcast,50,2013-02-25 07:35:00
1:55 AM,48.2,35.6,62,29.77,10.0,NE,5.8,-,N/A,,Overcast,40,2013-02-25 07:55:00
2:15 AM,48.2,35.6,62,29.76,10.0,ENE,8.1,-,N/A,,Overcast,60,2013-02-25 08:15:00
2:35 AM,50.0,35.6,58,29.77,10.0,NE,4.6,-,N/A,,Overcast,40,2013-02-25 08:35:00
2:55 AM,50.0,35.6,58,29.77,10.0,NNE,6.9,-,N/A,,Overcast,30,2013-02-25 08:55:00
3:15 AM,50.0,35.6,58,29.73,10.0,ENE,8.1,-,N/A,,Mostly Cloudy,60,2013-02-25 09:15:00
3:35 AM,48.2,35.6,62,29.73,10.0,ENE,6.9,-,N/A,,Scattered Clouds,60,2013-02-25 09:35:00
3:55 AM,48.2,35.6,62,29.72,10.0,ENE,8.1,-,N/A,,Clear,70,2013-02-25 09:55:00
4:15 AM,48.2,35.6,62,29.72,10.0,NE,6.9,-,N/A,,Mostly Cloudy,40,2013-02-25 10:15:00
4:35 AM,48.2,35.6,62,29.72,10.0,ENE,8.1,-,N/A,,Overcast,60,2013-02-25 10:35:00
4:55 AM,50.0,35.6,58,29.71,10.0,ENE,8.1,-,N/A,,Overcast,60,2013-02-25 10:55:00
5:15 AM,50.0,35.6,58,29.70,10.0,ENE,11.5,-,N/A,,Overcast,70,2013-02-25 11:15:00
5:35 AM,50.0,35.6,58,29.70,10.0,ENE,10.4,-,N/A,,Overcast,70,2013-02-25 11:35:00
5:55 AM,50.0,35.6,58,29.71,10.0,East,6.9,-,N/A,,Overcast,80,2013-02-25 11:55:00
6:15 AM,48.2,37.4,66,29.70,10.0,ENE,4.6,-,N/A,,Overcast,60,2013-02-25 12:15:00
6:35 AM,48.2,37.4,66,29.72,10.0,NE,4.6,-,N/A,Rain,Light Rain,40,2013-02-25 12:35:00
6:55 AM,50.0,39.2,66,29.73,10.0,North,5.8,-,N/A,,Overcast,10,2013-02-25 12:55:00
7:15 AM,48.2,39.2,71,29.74,10.0,NNE,4.6,-,N/A,,Overcast,20,2013-02-25 13:15:00
7:35 AM,50.0,39.2,66,29.74,10.0,NE,4.6,-,N/A,,Overcast,50,2013-02-25 13:35:00
7:55 AM,50.0,39.2,66,29.74,10.0,NNE,4.6,-,N/A,,Overcast,30,2013-02-25 13:55:00
8:15 AM,50.0,39.2,66,29.74,10.0,ENE,6.9,-,N/A,,Overcast,70,2013-02-25 14:15:00
8:35 AM,46.4,41.0,81,29.73,2.5,ENE,4.6,-,0.08,Rain,Light Rain,60,2013-02-25 14:35:00
8:55 AM,46.4,44.6,93,29.73,4.0,North,4.6,-,0.09,Rain,Light Rain,360,2013-02-25 14:55:00
9:15 AM,48.2,44.6,87,29.72,8.0,NE,8.1,-,N/A,Rain,Light Rain,40,2013-02-25 15:15:00
9:35 AM,48.2,44.6,87,29.71,10.0,NE,8.1,-,N/A,Rain,Light Rain,50,2013-02-25 15:35:00
9:55 AM,48.2,44.6,87,29.70,10.0,ENE,5.8,-,N/A,,Overcast,70,2013-02-25 15:55:00
10:15 AM,50.0,44.6,82,29.69,10.0,ENE,8.1,-,N/A,,Overcast,60,2013-02-25 16:15:00
10:35 AM,50.0,44.6,82,29.67,10.0,ENE,9.2,-,N/A,,Overcast,70,2013-02-25 16:35:00
11:15 AM,53.6,42.8,67,29.64,10.0,East,11.5,17.3,N/A,,Overcast,80,2013-02-25 17:15:00
11:35 AM,53.6,44.6,72,29.63,10.0,ESE,11.5,-,N/A,,Overcast,110,2013-02-25 17:35:00
11:55 AM,53.6,44.6,72,29.61,10.0,East,10.4,18.4,N/A,,Overcast,90,2013-02-25 17:55:00
12:15 PM,55.4,44.6,67,29.58,10.0,East,9.2,18.4,N/A,,Overcast,90,2013-02-25 18:15:00
12:35 PM,55.4,46.4,72,29.57,10.0,East,5.8,-,N/A,,Overcast,100,2013-02-25 18:35:00
12:55 PM,55.4,46.4,72,29.54,10.0,East,8.1,-,N/A,,Overcast,100,2013-02-25 18:55:00
1:15 PM,55.4,48.2,77,29.50,10.0,East,12.7,16.1,N/A,,Overcast,90,2013-02-25 19:15:00
1:35 PM,55.4,48.2,77,29.47,10.0,East,10.4,18.4,N/A,,Overcast,100,2013-02-25 19:35:00
1:55 PM,55.4,48.2,77,29.45,10.0,ESE,10.4,17.3,N/A,,Overcast,110,2013-02-25 19:55:00
2:15 PM,55.4,48.2,77,29.43,10.0,East,5.8,16.1,N/A,,Overcast,100,2013-02-25 20:15:00
2:35 PM,55.4,48.2,77,29.41,10.0,East,9.2,-,N/A,,Overcast,80,2013-02-25 20:35:00
2:55 PM,55.4,48.2,77,29.39,9.0,East,4.6,-,N/A,Rain,Light Rain,100,2013-02-25 20:55:00
3:15 PM,53.6,50.0,88,29.39,2.0,Calm,Calm,-,0.04,Rain,Heavy Rain,0,2013-02-25 21:15:00
3:35 PM,53.6,50.0,88,29.42,0.8,WNW,9.2,-,0.20,Rain,Heavy Rain,300,2013-02-25 21:35:00
3:55 PM,53.6,50.0,88,29.44,0.8,WNW,5.8,-,0.45,Rain,Heavy Rain,290,2013-02-25 21:55:00
4:15 PM,53.6,50.0,88,29.42,1.2,NW,5.8,-,0.06,Rain,Heavy Rain,320,2013-02-25 22:15:00
4:35 PM,53.6,50.0,88,29.42,1.2,WNW,4.6,-,0.09,Rain,Light Rain,300,2013-02-25 22:35:00
4:55 PM,53.6,50.0,88,29.43,1.5,West,6.9,-,0.14,Rain,Heavy Rain,280,2013-02-25 22:55:00
5:15 PM,51.8,50.0,94,29.40,7.0,North,6.9,-,N/A,,Mostly Cloudy,360,2013-02-25 23:15:00
5:35 PM,51.8,50.0,94,29.40,10.0,NNE,5.8,-,N/A,,Mostly Cloudy,20,2013-02-25 23:35:00
5:55 PM,50.0,48.2,94,29.39,10.0,North,5.8,-,N/A,,Overcast,360,2013-02-25 23:55:00
6:15 PM,50.0,48.2,94,29.40,10.0,NNW,4.6,-,N/A,,Overcast,330,2013-02-26 00:15:00
6:35 PM,50.0,48.2,94,29.40,10.0,NW,4.6,-,N/A,,Overcast,310,2013-02-26 00:35:00
6:55 PM,50.0,48.2,94,29.44,7.0,WNW,8.1,-,N/A,Rain,Light Rain,290,2013-02-26 00:55:00
7:15 PM,50.0,48.2,94,29.43,6.0,NW,6.9,-,N/A,,Overcast,310,2013-02-26 01:15:00
7:35 PM,50.0,48.2,94,29.44,9.0,NW,5.8,-,N/A,,Overcast,310,2013-02-26 01:35:00
7:55 PM,50.0,48.2,94,29.43,10.0,NNW,5.8,-,N/A,,Overcast,330,2013-02-26 01:55:00
8:15 PM,50.0,46.4,87,29.43,10.0,NW,4.6,-,N/A,,Overcast,320,2013-02-26 02:15:00
8:35 PM,48.2,46.4,93,29.44,10.0,NW,3.5,-,N/A,,Overcast,310,2013-02-26 02:35:00
8:55 PM,48.2,46.4,93,29.44,10.0,NNW,3.5,-,N/A,,Overcast,330,2013-02-26 02:55:00
9:15 PM,48.2,46.4,93,29.43,10.0,NNW,4.6,-,N/A,,Overcast,330,2013-02-26 03:15:00
9:35 PM,48.2,46.4,93,29.43,9.0,WNW,4.6,-,N/A,,Overcast,290,2013-02-26 03:35:00
9:55 PM,48.2,46.4,93,29.45,8.0,WSW,4.6,-,N/A,,Overcast,250,2013-02-26 03:55:00
10:15 PM,48.2,46.4,93,29.45,10.0,WSW,5.8,-,N/A,,Overcast,240,2013-02-26 04:15:00
10:35 PM,48.2,46.4,93,29.46,9.0,SW,4.6,-,N/A,,Overcast,230,2013-02-26 04:35:00
10:55 PM,48.2,46.4,93,29.45,8.0,SSW,6.9,-,N/A,,Overcast,210,2013-02-26 04:55:00
11:15 PM,48.2,46.4,93,29.46,10.0,SW,10.4,-,N/A,,Overcast,230,2013-02-26 05:15:00
11:35 PM,48.2,41.0,76,29.47,10.0,WSW,11.5,-,N/A,,Overcast,250,2013-02-26 05:35:00